7 * 24
多渠道服务支持
STARLINK-37040(NORAD编号69362)是美国太空探索技术公司(SpaceX)星链低轨通信星座的组成卫星,属于星链大规模组网批次的发射载荷。该卫星运行于距离地面540-570公里的近地轨道,轨道倾角匹配星链星座的组网布局,配备相控阵通信天线与激光星间链路,可支持Ku/Ka波段高速网络传输,部分同批次卫星搭载手机直连通信功能,能够为覆盖区域提供低时延宽带互联网接入服务,服务于星链全球无缝通信网络的构建。截至2026年,星链在轨 active卫星超1万颗,该卫星属于星座正常运行的组网节点之一。
美国
(US)
| 数据来源 | 国际轨道数据 |
| 星历时间: | 2026-09-13T09:25:09+0800 10小时前 查看轨道信息 |
| 半长轴: | 6840.832km |
| 偏心率: | 0.000129 |
| 轨道倾角: | 53.159° |
| 近地点辐角 | 84.189° |
| 升交点赤经 | 176.786° |
| 平近点角 | 275.926° |
| 近地点: | 461.812km |
| 远地点: | 463.578km |
| 周期: | 93.848分钟 |
| 每日圈数: | 15.34403 |